EHI
34 32 31 27 20 19 20 19 14 9 7 6 5 3 2 2 3 7 17 23 19 10 4 2 0 0 1 2 5 9 8 6 6 7 8 6 4 1 0 0 0 0 0
36 35 32 27 22 22 22 19 13 9 9 8 5 3 2 2 2 5 11 16 14 9 5 3 1 1 1 2 5 7 8 8 9 9 8 6 3 1 0 0 0 0 0
37 37 34 28 23 22 24 20 12 8 9 8 6 5 4 2 2 3 5 8 8 6 5 4 4 4 4 4 4 8 10 10 11 10 7 4 1 0 0 0 0 0 0
32 35 31 25 21 20 20 17 11 6 5 5 5 4 3 2 1 1 2 4 6 6 6 6 6 7 8 6 6 10 13 11 10 10 7 3 1 0 0 0 0 0 0
24 27 24 20 18 17 14 11 8 6 3 2 2 1 1 1 1 0 0 1 3 6 6 7 8 8 9 9 10 14 15 11 10 11 9 6 3 1 0 0 0 0 0
17 19 20 18 15 14 12 10 8 6 4 2 0 0 0 0 0 0 0 0 1 2 3 6 9 10 9 9 11 14 14 13 12 12 11 8 4 1 0 0 0 0 0
11 14 18 17 13 12 13 10 7 5 4 2 1 0 0 0 0 0 0 0 0 0 0 2 7 11 13 9 8 9 12 14 14 12 10 8 4 1 0 0 0 0 0
6 9 13 13 12 11 11 8 5 3 2 2 1 1 0 0 0 0 0 0 0 1 1 1 3 9 11 8 5 4 7 11 13 12 10 8 5 1 0 0 0 0 0
4 6 8 9 10 9 6 4 3 2 2 2 2 1 0 0 0 0 0 0 0 1 1 0 1 3 4 5 4 2 3 6 9 10 10 9 5 2 1 0 0 0 0
2 3 4 5 7 6 4 3 2 1 1 1 2 2 0 0 0 0 0 0 0 1 1 0 0 0 0 2 3 3 1 2 3 6 8 8 6 4 2 0 0 0 0
2 2 2 3 4 5 5 5 3 1 1 1 2 2 1 0 0 0 0 0 0 0 0 0 0 0 0 1 3 2 1 0 0 2 5 6 6 5 2 1 1 1 1
2 1 1 1 3 4 5 5 5 3 2 2 4 5 4 2 1 0 0 0 0 0 0 0 0 0 0 1 1 1 0 0 0 0 2 3 4 4 2 1 2 4 4
1 0 0 0 1 2 3 3 4 4 3 2 5 8 9 7 3 1 0 0 0 0 0 0 0 0 0 0 1 0 0 0 0 0 0 1 1 1 0 1 4 5 5
0 0 0 0 0 1 1 2 3 3 2 1 3 7 11 10 7 3 1 0 0 0 0 0 0 0 0 1 1 1 0 0 0 0 0 0 0 0 0 1 2 3 3
1 0 0 0 0 0 0 0 1 2 2 1 1 3 6 9 10 7 5 3 2 0 0 0 0 0 0 1 1 1 0 0 0 0 0 0 0 0 0 0 1 1 1
1 0 0 0 0 0 0 0 0 1 2 2 2 1 2 5 7 9 9 8 5 3 2 2 2 1 0 0 0 0 0 0 0 0 0 0 0 0 0 0 0 0 0
1 0 0 0 0 0 0 0 0 0 1 1 1 1 0 1 3 7 10 11 9 6 4 5 4 2 1 0 0 0 0 0 0 0 0 0 0 0 0 0 0 0 0
0 0 0 0 0 0 0 0 0 0 0 0 0 0 0 1 2 4 8 9 8 6 4 5 5 4 1 0 0 0 0 0 0 0 0 0 0 0 0 0 0 0 0
0 0 0 0 0 0 0 0 0 0 0 0 0 0 0 0 1 3 6 6 4 2 3 3 4 4 2 1 0 0 0 0 0 0 0 0 0 0 0 0 0 0 0
0 0 0 0 0 0 0 0 0 0 0 0 0 0 0 0 1 2 3 3 1 0 1 2 3 3 2 1 0 0 0 0 0 0 0 0 0 0 0 0 0 0 0
0 0 0 0 0 0 0 0 0 0 0 0 0 0 0 0 0 1 1 1 1 0 1 1 2 2 1 1 0 0 0 0 0 0 0 0 0 0 0 0 0 0 0
0 0 0 0 0 0 0 0 0 0 0 0 0 0 0 0 0 0 0 0 0 0 1 1 2 1 1 2 1 1 0 0 0 0 0 0 0 0 0 0 0 0 0
0 0 0 0 0 0 0 0 0 0 0 0 0 0 0 0 0 0 0 0 0 0 0 1 1 1 2 2 2 1 0 0 0 0 0 0 0 0 0 0 0 0 0
0 0 0 0 0 0 0 0 0 0 0 0 0 0 0 0 0 0 0 0 0 0 0 0 0 0 1 1 2 2 1 0 0 0 0 0 0 0 0 0 0 0 0
0 0 0 0 0 0 0 0 0 0 0 0 0 0 0 0 0 0 0 0 0 0 0 0 0 0 0 0 1 2 1 0 0 0 0 0 0 0 0 0 0 0 0
0 0 0 0 0 0 0 0 0 0 0 0 0 0 0 0 0 0 0 0 0 0 0 0 0 0 0 0 1 1 1 0 0 0 0 0 0 0 0 0 0 0 0
Wind_Speed
7 7 6 6 7 6 7 7 8 8 9 9 9 10 11 11 10 10 6 12 15 16 17 17 17 17 16 17 18 19 19 19 18 18 17 17 17 16 15 15 14 13 13
7 6 7 7 7 7 6 7 8 8 7 7 9 10 11 11 11 11 9 10 15 16 16 17 17 17 17 17 17 18 19 20 19 18 18 18 17 17 16 17 16 15 14
7 6 7 7 6 6 7 7 8 7 7 8 9 10 9 10 9 10 10 8 9 15 16 16 16 16 16 17 17 18 18 19 19 19 19 19 18 18 17 17 17 17 16
8 7 6 6 6 6 6 6 6 6 6 6 6 7 7 7 9 9 9 9 8 8 13 16 15 14 15 16 17 17 17 17 18 19 20 19 20 19 18 18 18 17 17
8 7 6 5 5 5 6 7 5 6 6 6 6 6 7 7 7 9 9 9 8 8 8 10 14 13 14 15 16 17 17 17 17 18 19 20 20 20 19 19 18 18 18
7 7 6 6 7 6 6 6 6 5 5 5 6 5 6 6 6 7 8 8 8 9 10 9 9 11 15 14 14 16 18 18 18 18 19 19 20 20 19 19 19 19 19
7 6 6 5 6 6 6 7 7 7 6 4 5 5 6 7 6 6 7 7 8 8 7 7 7 7 8 15 15 15 18 18 18 18 18 18 19 19 19 19 20 20 19
6 6 6 6 7 6 7 7 7 6 5 4 5 5 5 6 6 6 5 6 6 6 7 8 7 7 7 6 10 15 16 17 17 17 17 17 17 17 18 20 20 20 20
5 6 6 6 6 7 7 7 7 8 6 5 5 5 5 3 3 5 5 5 4 5 6 5 7 7 8 7 7 12 14 13 14 17 17 17 17 18 18 20 21 21 21
5 6 6 6 6 6 6 7 7 6 7 6 5 5 5 4 4 3 6 6 5 5 5 5 5 6 7 6 5 5 9 10 11 13 15 16 16 17 18 20 21 21 21
3 4 5 5 5 5 6 6 5 7 7 7 6 5 6 5 7 6 4 4 5 5 5 5 4 4 5 5 5 5 7 8 9 10 12 13 15 16 17 19 21 21 21
2 2 3 3 4 4 5 6 6 8 8 8 7 6 6 6 7 6 6 6 5 4 4 4 4 4 4 5 4 5 4 4 6 7 9 10 12 13 15 17 19 20 21
3 3 3 3 3 3 5 6 6 7 8 8 8 7 7 7 6 6 7 6 5 4 4 5 5 4 4 3 3 5 5 4 5 6 7 8 10 11 13 14 16 18 20
5 3 5 5 5 5 6 5 6 7 7 8 9 8 7 7 7 7 7 7 7 7 7 6 4 5 3 3 3 4 4 5 4 5 6 7 8 10 11 12 13 14 15
7 6 7 6 6 7 7 6 6 7 6 8 8 9 8 7 7 7 7 7 8 8 7 6 5 5 4 3 3 3 2 3 3 4 5 6 7 8 9 10 11 12 13
9 8 9 8 8 7 8 8 8 8 7 7 7 8 8 8 7 7 7 7 8 8 8 4 4 5 4 3 4 3 2 3 3 4 4 5 6 7 9 9 10 10 11
11 11 11 10 10 9 9 8 10 9 9 9 9 10 10 10 7 7 7 8 8 8 9 7 4 4 5 5 4 4 4 4 3 4 3 3 4 5 7 8 8 9 10
13 13 12 11 12 12 11 11 11 10 10 10 10 10 11 9 10 9 7 9 8 8 9 9 6 5 7 6 5 5 4 3 1 5 3 1 2 3 4 5 6 7 8
13 14 13 13 13 12 12 12 12 11 10 10 10 11 11 11 11 9 9 9 8 8 8 9 8 5 5 6 6 5 4 3 2 4 5 3 2 1 2 3 3 4 5
14 14 14 14 14 14 13 13 13 12 11 11 10 10 11 11 11 11 10 10 9 9 8 9 8 7 6 7 6 6 5 4 3 2 2 3 4 4 3 3 3 3 3
14 14 14 14 14 13 13 13 13 13 12 11 11 11 11 9 7 8 8 9 9 9 9 9 9 7 7 7 7 7 5 4 3 2 2 2 2 2 3 4 4 4 4
13 13 14 14 14 12 10 9 11 12 12 12 11 11 10 10 10 10 11 10 10 10 10 10 9 9 9 9 7 7 6 5 4 4 3 2 2 3 3 4 6 6 6
12 12 13 13 14 12 8 10 11 12 13 12 12 11 11 10 10 11 12 15 14 14 13 12 12 10 10 10 9 9 8 7 4 5 4 3 3 4 4 6 8 7 8
11 10 11 12 12 11 10 11 11 13 13 13 13 12 12 11 10 9 10 11 13 14 14 14 13 11 10 8 9 9 7 6 4 4 4 3 3 4 5 5 8 8 9
9 9 10 11 11 10 10 12 13 11 12 14 13 13 12 12 9 8 11 12 12 11 11 11 10 8 5 5 6 6 8 8 6 5 4 4 5 4 4 4 6 9 9
9 8 9 9 10 10 9 11 13 10 11 11 11 11 11 12 8 9 11 12 12 11 10 10 10 9 9 9 10 10 9 9 7 5 6 6 7 6 4 3 4 5 7
Wind_Direction
231 235 235 241 248 246 240 243 248 252 249 244 243 239 237 234 237 234 222 192 200 212 219 221 221 221 219 216 213 211 210 210 209 208 209 211 210 207 203 202 202 200 199
234 240 240 240 245 247 251 252 253 254 250 246 245 242 239 235 234 233 233 209 205 212 218 221 222 221 220 217 214 212 211 211 210 209 210 211 212 211 207 205 205 203 202
233 240 250 248 247 245 244 249 257 252 244 239 240 243 240 238 239 237 237 234 218 209 213 220 221 220 219 219 216 214 213 212 210 210 211 211 211 212 210 209 208 205 203
237 236 244 249 256 254 248 246 249 247 245 245 242 244 240 234 238 238 237 229 229 229 210 211 217 218 218 220 219 216 215 214 213 212 212 212 212 212 212 211 211 208 205
242 237 241 245 248 251 251 254 242 247 246 247 245 235 241 238 236 239 239 234 228 231 233 200 205 214 216 220 220 217 216 216 215 216 216 214 214 213 213 213 213 210 208
244 239 241 240 240 242 242 245 248 241 254 252 259 254 246 243 236 237 238 232 225 227 227 225 208 208 210 215 217 216 216 215 214 215 217 218 217 214 213 213 214 213 210
238 232 236 233 239 237 237 235 236 229 234 234 246 244 235 235 236 236 233 237 223 222 224 222 227 227 204 205 213 216 217 217 216 215 216 218 217 215 214 215 215 214 213
241 234 234 236 231 229 226 231 231 247 233 215 244 250 233 203 211 222 220 221 228 219 216 214 219 219 235 215 199 209 218 219 219 217 216 217 217 215 216 217 217 216 214
252 251 245 242 240 236 223 223 223 231 237 220 231 255 259 240 180 184 214 216 217 226 223 211 217 216 224 227 213 200 209 217 221 222 218 216 215 214 215 217 218 217 216
263 255 244 237 238 238 233 229 220 229 238 235 211 234 268 314 272 199 194 190 201 220 231 234 221 213 223 227 213 205 196 211 220 223 222 220 217 216 217 218 219 219 217
256 260 251 244 239 241 239 245 237 234 234 243 237 221 219 225 247 265 226 195 202 205 206 220 229 226 221 225 221 192 179 204 217 226 231 229 224 221 219 219 221 221 220
237 250 259 254 248 250 244 244 244 236 243 248 251 245 234 228 224 233 239 230 226 209 204 220 228 221 216 216 196 119 150 201 220 229 234 236 232 229 226 225 225 225 224
233 212 235 240 248 247 248 248 242 250 244 242 241 243 247 251 252 243 247 245 241 225 211 220 212 213 214 209 164 140 172 195 217 229 236 239 238 237 234 230 229 229 228
266 236 229 228 232 236 242 241 248 242 242 243 243 241 246 248 249 246 246 249 243 233 217 217 194 201 202 205 128 201 192 176 204 227 237 240 241 238 234 230 229 229 229
257 237 234 235 235 235 239 239 248 249 243 241 242 236 238 243 242 244 244 245 249 250 237 199 206 186 193 189 156 226 228 147 190 227 239 241 241 239 235 233 232 231 229
262 250 241 238 238 238 236 238 245 239 240 242 246 247 240 243 239 237 237 239 243 252 258 230 197 193 192 200 185 222 216 166 201 222 235 239 239 237 235 233 230 229 227
258 250 245 243 239 238 238 238 248 248 244 246 244 242 238 242 242 239 235 235 236 239 247 247 221 189 196 227 208 218 219 228 187 167 198 234 240 237 233 231 230 228 225
258 252 248 247 243 240 237 239 244 247 246 247 247 246 243 238 232 238 238 236 234 235 241 244 233 212 209 215 219 222 224 220 204 118 134 181 233 231 227 227 226 225 224
257 254 249 246 245 245 244 242 243 244 243 246 249 247 245 241 237 235 233 235 231 228 233 241 236 225 217 212 210 213 212 199 201 144 142 140 122 150 185 201 205 207 210
258 253 249 245 244 244 244 243 240 239 241 244 247 249 250 245 240 238 236 235 237 232 226 234 233 222 217 208 211 212 204 195 187 162 95 89 103 108 110 124 141 156 169
261 256 251 247 244 241 239 238 236 236 237 240 242 243 245 248 262 257 254 243 236 233 229 227 226 220 216 205 209 212 203 190 174 181 157 131 133 118 110 112 112 110 122
262 260 253 249 245 243 232 222 234 243 242 239 239 240 242 231 229 231 248 258 260 250 243 237 230 223 219 216 211 209 198 193 195 169 160 114 83 79 65 66 67 87 104
267 260 255 249 247 244 220 209 220 241 244 242 241 239 242 237 221 232 225 226 237 243 249 253 249 238 223 216 211 206 202 203 195 159 156 119 92 79 62 66 70 86 98
268 261 256 250 248 242 212 207 210 233 242 242 240 238 241 247 240 239 244 238 235 229 226 231 243 246 239 227 216 213 194 181 159 150 156 133 119 95 78 72 67 83 97
269 260 256 252 246 240 215 205 207 231 235 238 239 237 237 240 231 217 241 246 244 239 228 231 243 245 250 229 216 201 183 181 176 166 163 143 135 117 96 85 79 79 89
273 267 259 251 247 241 216 202 207 234 236 235 233 234 230 235 228 203 232 241 240 236 230 211 211 215 215 207 203 210 199 192 177 168 166 155 151 147 124 109 114 114 100